sat.trackr.live / text

‹ back to catalog

FENGYUN 3D

NORAD 43010 · 2017-072A

PAYLOAD ACTIVE UNKNOWN

§ Identity

Operator
Country
PRC
Launch date
2017-11-14
Launch site
TAISC
Launch vehicle
Mass (kg)
RCS (m²)

Purposes: earth_obs

External: N2YO · Heavens-Above · Gunter

§ Orbital elements

Epoch: 2026-09-12T04:23:53.149920Z

Period
101.43 min
Inclination
99.0229°
Eccentricity
0.0001951
Mean motion
14.19754931 rev/d
Perigee alt
824.8 km
Apogee alt
827.6 km
Semi-major
7,204.3 km
B*
4.6148e-5
RAAN
231.2197°
Arg perigee
127.9525°
Mean anomaly
232.1827°
Rev number
45,733

§ Raw data

FENGYUN 3D1 43010U 17072A   26255.18325405  .00000051  00000+0  46148-4 0  99952 43010  99.0229 231.2197 0001951 127.9525 232.1827 14.19754931457334

JSON: /api/v1/satellites/43010 · /tle

For live sub-satellite position, see the globe view (requires WebGL).

§ Visibility from observer

Set your observer location to see the next 7 days of passes ≥ 10°. The values pass through the URL so the page stays shareable.

No JS? Fill the form by hand. The geolocation button needs JavaScript.

§ Radio — SatNOGS DB

ModeDescriptionDownlinkUplink
AHRPT AHRPT 7.820 GHz
BPSK Telemetry 2.246 GHz
BPSK Telemetry 2 Mode S 2.265 GHz

3 transmitters · refreshed weekly from db.satnogs.org